Location: Unspecified
(54.1780°N, 0.0000°E)
Time: 20:15:09
(UTC+00:00)

Vanguard 2 - Pass Details

Date: 26 June 2019
Orbit: 554 x 2938 km, 32.9° (Epoch: 21 August)

Event Time Altitude Azimuth Distance (km) Brightness Sun altitude
Rises 11:10:55 0° 238° (WSW) 3,727 11.1 57.7°
Reaches altitude 10° 11:16:25 10° 201° (SSW) 3,346 11.3 58.0°
Maximum altitude 11:18:00 11° 190° (S) 3,464 11.5 58.1°
Drops below altitude 10° 11:19:43 10° 179° (S) 3,688 11.7 58.1°
Sets 11:27:42 0° 148° (SSE) 5,452 12.3 58.5°
